Location: Newark
(33.7579°N, 132.8129°E)
Time: 03:20:11
(UTC+00:00)

Hubble Space Telescope - Pass Details

Date: 23 November 2019
Orbit: 536 x 540 km, 28.5° (Epoch: 10 December)

Event Time Altitude Azimuth Distance (km) Brightness Sun altitude
Rises 09:24:25 0° 256° (WSW) 2,668 6.1 -17.0°
Reaches altitude 10° 09:26:46 10° 249° (WSW) 1,779 4.7 -17.5°
Maximum altitude 09:30:37 39° 179° (S) 802 1.7 -18.3°
Enters shadow 09:32:08 28° 133° (SE) 1,015 1.8 -18.6°
